When you browse on this site, cookies collect data to enhance your experience and personalize the content and advertising you see.
Visit our Privacy Policy to learn more. By continuing to use the site, you agree to this use of cookies and data.
  • Em Portugal
  • Lista de países
  • Para 7 dias
  • Temperatura da água
  • Mapa do tempo
  • Widgets de tempo
  • user-avatar
    Iniciar Sessão

    Previsão horária em Kabala

    Hoje, 6 Abril, Segunda-feira

    Tempo Temperatura Precipitação Vento Pressão Humidade
    00:00 +29°C° 0 mm 2 m/s 722 mmHg 71%
    01:00 +28°C° 0 mm 2 m/s 722 mmHg 75%
    02:00 +27°C° 0 mm 2 m/s 722 mmHg 79%
    03:00 +27°C° 0 mm 2 m/s 722 mmHg 81%
    04:00 +26°C° 0 mm 2 m/s 722 mmHg 83%
    05:00 +26°C° 0 mm 2 m/s 722 mmHg 86%
    06:00 +27°C° 0 mm 2 m/s 723 mmHg 80%
    07:00 +29°C° 0 mm 2 m/s 723 mmHg 74%
    08:00 +30°C° 0 mm 3 m/s 724 mmHg 69%
    09:00 +33°C° 0 mm 3 m/s 724 mmHg 58%
    10:00 +36°C° 0 mm 2 m/s 724 mmHg 47%
    11:00 +38°C° 0 mm 2 m/s 724 mmHg 36%
    12:00 +40°C° 0 mm 2 m/s 723 mmHg 32%
    13:00 +41°C° 0 mm 1 m/s 722 mmHg 28%
    14:00 +43°C° 0 mm 1 m/s 721 mmHg 24%
    15:00 +42°C° 0 mm 2 m/s 721 mmHg 25%
    16:00 +40°C° 0 mm 2 m/s 721 mmHg 27%
    17:00 +39°C° 0 mm 3 m/s 720 mmHg 29%
    18:00 +37°C° 0.1 mm 3 m/s 721 mmHg 39%
    19:00 +34°C° 0.1 mm 3 m/s 722 mmHg 49%
    20:00 +31°C° 0.1 mm 3 m/s 723 mmHg 60%
    21:00 +30°C° 0 mm 3 m/s 723 mmHg 64%
    22:00 +29°C° 0 mm 3 m/s 723 mmHg 69%
    23:00 +28°C° 0 mm 2 m/s 723 mmHg 74%

    Amanhã, 7 Abril, Terça-feira

    Tempo Temperatura Precipitação Vento Pressão Humidade
    00:00 +28°C° 0 mm 2 m/s 723 mmHg 76%
    01:00 +27°C° 0 mm 2 m/s 723 mmHg 79%
    02:00 +27°C° 0 mm 2 m/s 722 mmHg 82%
    03:00 +26°C° 0 mm 2 m/s 722 mmHg 85%
    04:00 +26°C° 0 mm 2 m/s 722 mmHg 87%
    05:00 +25°C° 0 mm 2 m/s 722 mmHg 89%
    06:00 +27°C° 0 mm 2 m/s 723 mmHg 83%
    07:00 +28°C° 0 mm 2 m/s 723 mmHg 77%
    08:00 +29°C° 0 mm 3 m/s 724 mmHg 70%
    09:00 +31°C° 0 mm 3 m/s 724 mmHg 63%
    10:00 +34°C° 0 mm 3 m/s 723 mmHg 56%
    11:00 +36°C° 0 mm 3 m/s 723 mmHg 49%
    12:00 +37°C° 0 mm 3 m/s 722 mmHg 42%
    13:00 +39°C° 0 mm 2 m/s 722 mmHg 36%
    14:00 +40°C° 0 mm 2 m/s 721 mmHg 30%
    15:00 +39°C° 0 mm 2 m/s 721 mmHg 31%
    16:00 +39°C° 0 mm 2 m/s 721 mmHg 33%
    17:00 +38°C° 0 mm 2 m/s 721 mmHg 34%
    18:00 +36°C° 0 mm 3 m/s 721 mmHg 42%
    19:00 +34°C° 0 mm 3 m/s 722 mmHg 50%
    20:00 +31°C° 0 mm 3 m/s 723 mmHg 59%
    21:00 +30°C° 0 mm 3 m/s 723 mmHg 65%
    22:00 +29°C° 0 mm 3 m/s 723 mmHg 71%
    23:00 +28°C° 0 mm 2 m/s 723 mmHg 77%

    Depois de amanhã, 8 Abril, Quarta-feira

    Tempo Temperatura Precipitação Vento Pressão Humidade
    00:00 +27°C° 0 mm 2 m/s 722 mmHg 80%
    01:00 +27°C° 0 mm 2 m/s 722 mmHg 82%
    02:00 +26°C° 0 mm 1 m/s 722 mmHg 85%
    03:00 +26°C° 0 mm 1 m/s 722 mmHg 87%
    04:00 +25°C° 0 mm 1 m/s 722 mmHg 89%
    05:00 +25°C° 0 mm 1 m/s 722 mmHg 90%
    06:00 +26°C° 0 mm 2 m/s 722 mmHg 83%
    07:00 +28°C° 0 mm 2 m/s 723 mmHg 76%
    08:00 +29°C° 0 mm 3 m/s 723 mmHg 68%
    09:00 +31°C° 0 mm 3 m/s 723 mmHg 60%
    10:00 +35°C° 0 mm 3 m/s 723 mmHg 52%
    11:00 +37°C° 0 mm 3 m/s 723 mmHg 44%
    12:00 +38°C° 0 mm 2 m/s 722 mmHg 40%
    13:00 +39°C° 0 mm 2 m/s 721 mmHg 36%
    14:00 +40°C° 0 mm 2 m/s 721 mmHg 31%
    15:00 +39°C° 0 mm 2 m/s 720 mmHg 34%
    16:00 +38°C° 0 mm 3 m/s 720 mmHg 37%
    17:00 +37°C° 0 mm 3 m/s 720 mmHg 39%
    18:00 +35°C° 0.5 mm 3 m/s 720 mmHg 49%
    19:00 +31°C° 0.5 mm 3 m/s 721 mmHg 59%
    20:00 +29°C° 0.5 mm 2 m/s 722 mmHg 69%
    21:00 +28°C° 0.5 mm 2 m/s 722 mmHg 74%
    22:00 +27°C° 0.5 mm 2 m/s 722 mmHg 79%
    23:00 +26°C° 0.5 mm 2 m/s 723 mmHg 84%

    9 Abril, Quinta-feira

    Tempo Temperatura Precipitação Vento Pressão Humidade
    00:00 +26°C° 0 mm 1 m/s 722 mmHg 86%
    01:00 +26°C° 0 mm 1 m/s 722 mmHg 88%
    02:00 +25°C° 0 mm 1 m/s 721 mmHg 90%
    03:00 +25°C° 0 mm 1 m/s 721 mmHg 91%
    04:00 +25°C° 0 mm 1 m/s 721 mmHg 92%
    05:00 +24°C° 0 mm 1 m/s 721 mmHg 93%
    06:00 +26°C° 0 mm 2 m/s 721 mmHg 86%
    07:00 +27°C° 0 mm 2 m/s 722 mmHg 79%
    08:00 +28°C° 0 mm 2 m/s 722 mmHg 73%
    09:00 +31°C° 0 mm 2 m/s 722 mmHg 64%
    10:00 +34°C° 0 mm 3 m/s 722 mmHg 55%
    11:00 +36°C° 0 mm 3 m/s 722 mmHg 46%
    12:00 +38°C° 0 mm 2 m/s 721 mmHg 39%
    13:00 +40°C° 0 mm 1 m/s 721 mmHg 33%
    14:00 +42°C° 0 mm 1 m/s 720 mmHg 26%
    15:00 +41°C° 0 mm 1 m/s 720 mmHg 28%
    16:00 +39°C° 0 mm 1 m/s 720 mmHg 29%
    17:00 +38°C° 0 mm 2 m/s 720 mmHg 31%
    18:00 +35°C° 0.1 mm 2 m/s 720 mmHg 42%
    19:00 +31°C° 0.1 mm 2 m/s 721 mmHg 53%
    20:00 +28°C° 0.1 mm 1 m/s 721 mmHg 64%
    21:00 +27°C° 0.3 mm 1 m/s 721 mmHg 69%
    22:00 +26°C° 0.3 mm 1 m/s 722 mmHg 74%
    23:00 +26°C° 0.3 mm 1 m/s 722 mmHg 80%

    10 Abril, Sexta-feira

    Tempo Temperatura Precipitação Vento Pressão Humidade
    00:00 +25°C° 0 mm 1 m/s 721 mmHg 83%
    01:00 +23°C° 0 mm 0 m/s 721 mmHg 86%
    02:00 +23°C° 0 mm 0 m/s 720 mmHg 90%
    03:00 +23°C° 0 mm 0 m/s 720 mmHg 91%
    04:00 +23°C° 0 mm 0 m/s 721 mmHg 93%
    05:00 +22°C° 0 mm 0 m/s 721 mmHg 94%
    06:00 +26°C° 0 mm 1 m/s 721 mmHg 87%
    07:00 +27°C° 0 mm 1 m/s 722 mmHg 80%
    08:00 +29°C° 0 mm 2 m/s 722 mmHg 73%
    09:00 +32°C° 0 mm 2 m/s 722 mmHg 61%
    10:00 +35°C° 0 mm 2 m/s 722 mmHg 50%
    11:00 +38°C° 0 mm 2 m/s 722 mmHg 39%
    12:00 +40°C° 0 mm 1 m/s 721 mmHg 35%
    13:00 +41°C° 0 mm 1 m/s 720 mmHg 30%
    14:00 +43°C° 0 mm 1 m/s 720 mmHg 26%
    15:00 +41°C° 0 mm 1 m/s 720 mmHg 31%
    16:00 +38°C° 0 mm 2 m/s 719 mmHg 35%
    17:00 +36°C° 0 mm 2 m/s 719 mmHg 40%
    18:00 +34°C° 0.7 mm 2 m/s 720 mmHg 50%
    19:00 +30°C° 0.7 mm 2 m/s 720 mmHg 60%
    20:00 +28°C° 0.7 mm 1 m/s 721 mmHg 70%
    21:00 +27°C° 0.5 mm 2 m/s 721 mmHg 76%
    22:00 +27°C° 0.5 mm 2 m/s 721 mmHg 81%
    23:00 +26°C° 0.5 mm 2 m/s 721 mmHg 86%

    11 Abril, Sábado

    Tempo Temperatura Precipitação Vento Pressão Humidade
    00:00 +26°C° 0 mm 2 m/s 721 mmHg 88%
    01:00 +26°C° 0 mm 2 m/s 721 mmHg 89%
    02:00 +25°C° 0 mm 1 m/s 720 mmHg 91%
    03:00 +25°C° 0 mm 1 m/s 720 mmHg 92%
    04:00 +25°C° 0 mm 1 m/s 720 mmHg 93%
    05:00 +23°C° 0 mm 0 m/s 721 mmHg 94%
    06:00 +26°C° 0 mm 1 m/s 721 mmHg 88%
    07:00 +27°C° 0 mm 2 m/s 722 mmHg 83%
    08:00 +28°C° 0 mm 2 m/s 722 mmHg 77%
    09:00 +30°C° 0 mm 2 m/s 722 mmHg 70%
    10:00 +31°C° 0 mm 2 m/s 722 mmHg 63%
    11:00 +34°C° 0 mm 2 m/s 722 mmHg 57%
    12:00 +35°C° 0 mm 2 m/s 721 mmHg 51%
    13:00 +36°C° 0 mm 2 m/s 721 mmHg 46%
    14:00 +38°C° 0 mm 2 m/s 720 mmHg 41%
    15:00 +37°C° 0.1 mm 2 m/s 720 mmHg 43%
    16:00 +36°C° 0.1 mm 3 m/s 720 mmHg 45%
    17:00 +36°C° 0.1 mm 3 m/s 720 mmHg 47%
    18:00 +33°C° 2.8 mm 3 m/s 721 mmHg 60%
    19:00 +29°C° 2.8 mm 2 m/s 721 mmHg 72%
    20:00 +27°C° 2.8 mm 2 m/s 722 mmHg 85%
    21:00 +26°C° 0.3 mm 2 m/s 722 mmHg 86%
    22:00 +26°C° 0.3 mm 1 m/s 722 mmHg 88%
    23:00 +26°C° 0.3 mm 1 m/s 723 mmHg 90%
    Mostrar mais